Temp
-11 -11 -11 -11 -11 -11 -11 -11 -11 -11 -11 -11 -11 -11 -11 -12 -12 -13 -13 -13 -12 -12 -12 -12 -11 -11 -11 -12 -12 -12 -12 -11 -11 -11 -11 -11 -11 -11 -11 -11 -11 -11 -11 -11 -11 -11 -11
-11 -11 -11 -11 -11 -11 -11 -11 -11 -11 -12 -12 -12 -12 -12 -12 -12 -12 -13 -13 -12 -12 -12 -12 -12 -12 -12 -12 -12 -11 -11 -11 -11 -11 -11 -11 -11 -11 -11 -11 -11 -12 -12 -12 -12 -12 -12
-11 -12 -12 -12 -12 -12 -12 -12 -12 -12 -12 -12 -12 -12 -12 -12 -12 -12 -12 -12 -12 -12 -12 -12 -12 -12 -12 -12 -12 -12 -12 -11 -11 -11 -11 -11 -11 -11 -11 -11 -11 -11 -11 -11 -11 -11 -11
-12 -12 -12 -12 -12 -12 -12 -12 -12 -12 -13 -12 -12 -12 -12 -12 -12 -13 -12 -12 -12 -12 -12 -12 -12 -12 -12 -12 -12 -12 -12 -11 -11 -11 -11 -11 -11 -11 -11 -11 -11 -11 -11 -11 -11 -11 -11
-12 -12 -12 -12 -12 -12 -12 -12 -12 -12 -13 -13 -13 -13 -13 -13 -13 -13 -12 -13 -13 -12 -12 -12 -12 -12 -12 -12 -12 -11 -11 -11 -11 -11 -11 -11 -11 -11 -11 -11 -11 -11 -11 -11 -11 -11 -11
-12 -12 -12 -12 -12 -12 -12 -12 -12 -12 -13 -13 -13 -13 -13 -13 -13 -13 -13 -13 -13 -12 -12 -12 -12 -12 -12 -12 -12 -12 -12 -12 -12 -12 -11 -11 -11 -11 -11 -11 -11 -11 -11 -11 -11 -11 -12
-12 -13 -13 -12 -12 -13 -12 -12 -12 -12 -12 -13 -13 -13 -13 -13 -13 -13 -13 -13 -13 -12 -12 -13 -13 -12 -12 -12 -12 -12 -12 -12 -12 -12 -12 -12 -12 -12 -12 -12 -12 -12 -12 -12 -12 -12 -12
-12 -12 -13 -13 -13 -13 -12 -12 -12 -12 -13 -13 -13 -14 -13 -13 -13 -13 -13 -13 -13 -13 -12 -13 -13 -13 -12 -12 -13 -13 -12 -12 -12 -12 -12 -12 -12 -12 -12 -12 -12 -12 -12 -13 -13 -13 -12
-12 -12 -12 -13 -13 -13 -13 -13 -13 -12 -12 -12 -13 -13 -13 -13 -13 -14 -13 -13 -13 -13 -13 -13 -13 -13 -13 -13 -13 -13 -13 -12 -12 -12 -12 -12 -12 -12 -12 -13 -13 -13 -13 -13 -13 -13 -14
-13 -13 -12 -13 -13 -13 -13 -13 -13 -12 -13 -13 -13 -13 -13 -13 -13 -14 -13 -13 -13 -13 -13 -13 -13 -13 -13 -13 -13 -13 -13 -13 -13 -13 -13 -13 -13 -13 -13 -13 -13 -13 -14 -14 -14 -15 -15
-13 -13 -13 -12 -13 -13 -13 -13 -13 -13 -13 -12 -13 -13 -14 -14 -13 -14 -14 -14 -13 -13 -13 -13 -13 -13 -13 -13 -13 -13 -13 -13 -13 -13 -13 -13 -13 -13 -14 -14 -14 -14 -14 -15 -15 -16 -16
-13 -13 -13 -13 -13 -13 -13 -13 -13 -13 -13 -13 -13 -13 -14 -14 -14 -14 -14 -14 -14 -13 -13 -13 -13 -13 -13 -13 -13 -13 -13 -13 -13 -13 -13 -14 -14 -14 -14 -15 -15 -15 -15 -16 -17 -17 -19
-13 -13 -13 -14 -14 -13 -13 -14 -13 -13 -13 -13 -13 -13 -14 -14 -14 -14 -14 -14 -14 -14 -13 -13 -13 -13 -13 -13 -13 -13 -13 -13 -14 -14 -14 -14 -14 -14 -15 -16 -16 -17 -17 -18 -19 -20 -21
-13 -14 -14 -14 -14 -14 -13 -14 -13 -13 -13 -13 -13 -13 -14 -14 -14 -15 -15 -14 -14 -14 -14 -14 -13 -13 -13 -13 -13 -14 -14 -14 -14 -14 -15 -15 -15 -16 -16 -17 -17 -18 -19 -20 -22 -22 -23
-14 -14 -14 -14 -14 -14 -14 -14 -14 -14 -13 -14 -13 -14 -14 -14 -14 -14 -15 -15 -14 -14 -14 -14 -14 -13 -14 -14 -14 -14 -14 -14 -14 -15 -15 -16 -16 -17 -17 -18 -19 -20 -21 -23 -24 -25 -25
-14 -14 -15 -14 -14 -14 -14 -15 -14 -14 -14 -14 -13 -14 -14 -15 -15 -15 -15 -15 -15 -14 -14 -14 -14 -14 -14 -14 -14 -14 -14 -15 -15 -16 -16 -16 -17 -18 -18 -20 -20 -22 -23 -25 -26 -27 -27
-14 -14 -14 -15 -14 -15 -15 -14 -14 -14 -14 -14 -13 -13 -15 -15 -15 -15 -15 -15 -15 -15 -15 -15 -14 -14 -14 -15 -15 -15 -15 -15 -16 -16 -17 -17 -18 -19 -20 -21 -22 -23 -25 -26 -27 -28 -29
-15 -15 -14 -14 -15 -15 -15 -14 -14 -15 -14 -14 -14 -14 -15 -15 -15 -15 -15 -15 -15 -15 -15 -15 -15 -15 -15 -15 -15 -15 -16 -16 -16 -17 -17 -18 -19 -20 -21 -23 -24 -25 -26 -27 -28 -28 -29
-15 -15 -15 -14 -15 -16 -15 -14 -15 -15 -15 -14 -15 -15 -15 -15 -15 -15 -15 -15 -15 -15 -15 -15 -15 -15 -15 -15 -16 -16 -16 -17 -17 -18 -18 -19 -20 -21 -22 -24 -25 -26 -27 -28 -28 -29 -29
-15 -15 -15 -15 -16 -16 -16 -15 -15 -15 -15 -15 -15 -15 -15 -15 -15 -15 -15 -15 -15 -15 -15 -15 -15 -15 -16 -16 -16 -16 -17 -17 -18 -19 -20 -20 -22 -23 -24 -25 -26 -27 -28 -28 -29 -29 -29
-15 -16 -16 -16 -16 -16 -16 -15 -15 -16 -15 -15 -15 -15 -15 -15 -15 -15 -15 -15 -15 -15 -15 -16 -16 -16 -16 -16 -16 -17 -17 -18 -19 -20 -21 -22 -23 -24 -25 -26 -27 -28 -28 -29 -29 -30 -30
-16 -16 -16 -16 -16 -16 -16 -16 -16 -16 -16 -16 -16 -16 -16 -15 -15 -15 -15 -15 -15 -16 -16 -16 -16 -16 -16 -17 -17 -17 -18 -19 -20 -21 -22 -23 -24 -25 -26 -27 -28 -28 -29 -29 -30 -30 -31
-16 -16 -16 -16 -16 -17 -16 -16 -17 -16 -16 -16 -16 -16 -16 -15 -15 -15 -15 -15 -16 -16 -16 -16 -16 -17 -17 -17 -17 -18 -18 -20 -21 -22 -23 -24 -25 -26 -27 -28 -29 -29 -30 -30 -30 -31 -31
-16 -16 -16 -16 -16 -17 -17 -17 -17 -16 -16 -16 -16 -16 -16 -16 -16 -16 -15 -16 -16 -16 -16 -16 -17 -17 -17 -17 -18 -19 -19 -21 -22 -23 -25 -26 -27 -28 -28 -29 -29 -30 -30 -30 -31 -31 -31
-17 -16 -16 -16 -16 -16 -17 -17 -17 -17 -16 -16 -16 -16 -16 -16 -16 -16 -16 -16 -16 -16 -16 -16 -17 -17 -17 -18 -19 -19 -21 -22 -23 -24 -26 -27 -28 -29 -29 -30 -30 -30 -31 -31 -31 -32 -32
-17 -17 -17 -16 -16 -16 -17 -17 -17 -17 -17 -16 -16 -16 -16 -16 -16 -16 -16 -16 -16 -16 -16 -17 -17 -17 -18 -19 -19 -20 -21 -23 -24 -25 -27 -28 -29 -30 -30 -31 -31 -31 -32 -32 -32 -32 -32
-17 -17 -17 -16 -16 -16 -17 -17 -17 -17 -17 -17 -16 -16 -16 -16 -16 -16 -16 -16 -16 -16 -17 -17 -17 -18 -18 -20 -20 -21 -23 -24 -25 -26 -28 -29 -30 -30 -31 -32 -32 -32 -32 -33 -33 -33 -33
-17 -17 -17 -16 -16 -17 -16 -17 -17 -17 -17 -17 -17 -16 -16 -16 -16 -16 -16 -16 -16 -17 -17 -17 -18 -18 -19 -20 -22 -23 -23 -25 -26 -27 -29 -30 -31 -31 -32 -32 -32 -33 -33 -33 -33 -34 -34
-17 -17 -17 -17 -18 -18 -17 -17 -17 -17 -17 -17 -17 -16 -16 -16 -16 -16 -16 -17 -17 -17 -17 -18 -18 -19 -20 -22 -23 -24 -24 -25 -27 -27 -29 -30 -31 -32 -32 -33 -33 -33 -33 -34 -34 -34 -34
Height
5795 5793 5791 5790 5788 5785 5783 5781 5779 5778 5776 5774 5771 5769 5766 5764 5762 5762 5761 5760 5757 5756 5755 5754 5752 5751 5750 5749 5748 5748 5747 5747 5746 5747 5747 5747 5746 5746 5745 5744 5742 5743 5742 5740 5740 5740 5740
5792 5791 5789 5787 5786 5784 5782 5779 5777 5775 5773 5770 5768 5766 5764 5762 5760 5759 5758 5756 5755 5753 5752 5750 5749 5748 5747 5746 5744 5744 5743 5743 5742 5742 5741 5741 5740 5739 5737 5735 5734 5733 5732 5730 5728 5729 5728
5789 5787 5787 5785 5784 5782 5779 5778 5775 5772 5770 5768 5766 5764 5762 5759 5757 5756 5755 5753 5752 5750 5749 5747 5746 5745 5743 5743 5741 5740 5739 5738 5738 5737 5736 5735 5734 5733 5731 5727 5725 5723 5722 5721 5719 5717 5715
5785 5785 5783 5782 5780 5779 5776 5774 5773 5770 5767 5765 5763 5761 5759 5757 5755 5754 5751 5750 5749 5747 5746 5744 5742 5741 5739 5738 5737 5735 5734 5733 5733 5732 5731 5729 5728 5726 5724 5721 5719 5716 5714 5711 5710 5706 5703
5782 5780 5779 5779 5778 5776 5774 5770 5768 5767 5764 5762 5760 5757 5755 5754 5752 5750 5749 5747 5746 5745 5743 5741 5739 5737 5737 5734 5732 5731 5730 5729 5727 5726 5725 5723 5722 5719 5717 5715 5712 5709 5705 5702 5698 5695 5691
5776 5776 5775 5774 5773 5772 5770 5768 5765 5762 5760 5758 5756 5754 5752 5750 5749 5747 5746 5744 5743 5742 5740 5738 5736 5735 5733 5730 5728 5725 5724 5722 5721 5720 5719 5717 5714 5712 5709 5706 5703 5699 5696 5691 5687 5683 5679
5771 5771 5770 5770 5769 5768 5765 5764 5760 5757 5754 5752 5752 5750 5748 5746 5744 5744 5743 5741 5741 5740 5737 5735 5732 5730 5727 5725 5723 5722 5719 5716 5715 5713 5710 5709 5706 5704 5701 5698 5693 5689 5684 5679 5674 5668 5665
5766 5765 5765 5764 5762 5762 5761 5759 5758 5755 5749 5748 5746 5744 5743 5741 5740 5738 5738 5737 5735 5734 5733 5730 5727 5725 5723 5721 5719 5717 5714 5712 5709 5706 5704 5702 5698 5695 5691 5688 5683 5677 5672 5666 5660 5652 5646
5760 5759 5759 5758 5758 5757 5755 5754 5751 5750 5747 5742 5740 5739 5737 5735 5735 5734 5732 5731 5730 5727 5727 5726 5723 5720 5717 5716 5713 5711 5709 5707 5704 5701 5697 5694 5690 5686 5681 5677 5671 5663 5657 5651 5644 5636 5627
5754 5754 5752 5752 5752 5750 5749 5749 5747 5745 5743 5738 5733 5733 5732 5730 5730 5728 5727 5725 5724 5722 5721 5720 5717 5716 5713 5711 5709 5706 5703 5700 5697 5693 5690 5686 5681 5676 5670 5664 5658 5650 5644 5635 5626 5617 5607
5746 5747 5747 5745 5744 5743 5742 5742 5740 5739 5737 5736 5730 5727 5725 5724 5724 5723 5722 5720 5718 5717 5714 5714 5710 5707 5705 5704 5700 5697 5694 5690 5687 5683 5680 5675 5668 5662 5655 5650 5643 5636 5627 5618 5608 5596 5587
5738 5738 5739 5739 5738 5737 5736 5734 5733 5732 5730 5729 5727 5722 5720 5719 5718 5718 5716 5714 5713 5712 5709 5708 5704 5702 5699 5696 5693 5689 5686 5683 5678 5673 5668 5662 5656 5650 5643 5635 5627 5619 5610 5601 5590 5580 5570
5729 5730 5730 5730 5730 5730 5729 5729 5726 5724 5722 5722 5720 5717 5714 5713 5712 5711 5710 5708 5707 5704 5703 5701 5698 5695 5692 5689 5685 5681 5677 5672 5667 5661 5656 5650 5644 5637 5629 5621 5612 5603 5595 5586 5576 5563 5553
5721 5722 5722 5722 5721 5721 5720 5719 5719 5716 5715 5714 5712 5710 5707 5707 5705 5704 5703 5702 5699 5698 5695 5693 5690 5687 5684 5681 5677 5673 5668 5664 5658 5652 5646 5639 5632 5624 5615 5607 5598 5589 5580 5570 5557 5548 5540
5713 5713 5714 5713 5714 5713 5711 5711 5710 5709 5707 5706 5704 5702 5701 5699 5698 5697 5696 5694 5692 5690 5689 5686 5683 5679 5676 5671 5667 5662 5658 5653 5648 5642 5635 5625 5618 5610 5602 5593 5585 5573 5563 5554 5544 5536 5526
5703 5704 5706 5706 5706 5706 5705 5704 5702 5700 5699 5698 5696 5695 5693 5692 5691 5690 5689 5686 5684 5682 5679 5677 5674 5671 5666 5662 5658 5652 5647 5642 5636 5630 5622 5614 5605 5597 5589 5579 5571 5562 5553 5542 5531 5519 5511
5695 5696 5697 5698 5698 5698 5697 5697 5694 5692 5690 5689 5687 5686 5685 5684 5683 5682 5680 5679 5676 5674 5672 5669 5665 5661 5657 5652 5647 5641 5636 5630 5624 5617 5610 5601 5593 5585 5575 5567 5558 5550 5541 5533 5523 5514 5502
5685 5686 5687 5689 5689 5690 5689 5688 5687 5685 5682 5680 5679 5677 5677 5675 5676 5673 5671 5669 5669 5666 5663 5660 5655 5651 5646 5641 5636 5630 5624 5617 5611 5603 5596 5588 5579 5571 5564 5555 5548 5540 5532 5524 5515 5508 5498
5676 5676 5678 5680 5681 5680 5680 5679 5679 5677 5674 5672 5670 5669 5667 5666 5666 5664 5662 5661 5659 5657 5653 5650 5645 5641 5636 5631 5625 5618 5612 5605 5597 5590 5582 5575 5567 5559 5551 5546 5538 5530 5522 5515 5508 5501 5493
5668 5668 5668 5669 5671 5673 5670 5669 5669 5668 5666 5664 5662 5660 5659 5658 5656 5655 5653 5651 5649 5646 5643 5640 5636 5630 5625 5620 5613 5607 5600 5592 5584 5576 5569 5562 5555 5547 5540 5533 5526 5520 5512 5506 5499 5492 5485
5660 5659 5660 5662 5662 5663 5662 5661 5661 5659 5657 5655 5653 5651 5650 5649 5647 5645 5643 5642 5638 5636 5633 5629 5625 5619 5614 5608 5601 5595 5588 5579 5571 5564 5556 5549 5543 5535 5529 5522 5515 5509 5502 5495 5489 5483 5475
5652 5651 5651 5652 5653 5654 5654 5651 5651 5650 5648 5645 5644 5643 5641 5640 5637 5635 5633 5631 5628 5625 5622 5618 5612 5607 5602 5596 5589 5582 5574 5566 5559 5551 5544 5537 5531 5523 5518 5510 5504 5500 5492 5486 5480 5473 5466
5641 5641 5641 5643 5643 5644 5644 5643 5641 5641 5639 5636 5635 5634 5632 5631 5628 5626 5623 5621 5617 5614 5611 5605 5600 5594 5589 5582 5575 5568 5560 5552 5546 5539 5532 5525 5518 5511 5506 5500 5493 5491 5485 5478 5472 5465 5459
5630 5632 5631 5632 5632 5632 5633 5631 5632 5630 5629 5626 5626 5624 5621 5621 5618 5615 5612 5610 5606 5602 5598 5593 5587 5581 5576 5568 5561 5554 5546 5539 5532 5526 5519 5513 5506 5499 5494 5489 5484 5480 5474 5469 5464 5457 5451
5619 5620 5619 5621 5620 5620 5620 5620 5620 5620 5618 5617 5615 5613 5611 5610 5608 5605 5601 5598 5594 5590 5585 5580 5575 5568 5560 5554 5547 5539 5533 5526 5521 5513 5508 5501 5494 5488 5483 5477 5473 5471 5465 5460 5454 5451 5441
5608 5608 5609 5609 5608 5609 5608 5609 5609 5609 5607 5606 5603 5602 5601 5599 5599 5594 5590 5587 5583 5577 5572 5568 5561 5554 5547 5540 5533 5525 5517 5512 5505 5500 5497 5489 5483 5479 5473 5465 5461 5461 5455 5449 5443 5441 5435
5597 5597 5597 5597 5598 5598 5597 5598 5598 5597 5598 5596 5593 5591 5590 5588 5586 5582 5579 5575 5570 5564 5560 5554 5548 5540 5533 5527 5519 5513 5506 5500 5493 5488 5484 5477 5471 5467 5460 5454 5453 5451 5444 5438 5434 5431 5424
5585 5586 5587 5586 5587 5586 5587 5589 5588 5587 5586 5584 5582 5580 5578 5576 5573 5570 5566 5562 5556 5551 5547 5541 5534 5526 5518 5512 5505 5500 5491 5487 5481 5476 5471 5466 5460 5457 5451 5445 5443 5440 5433 5430 5424 5417 5413
5575 5575 5575 5576 5577 5578 5578 5579 5578 5577 5575 5574 5571 5568 5566 5564 5562 5557 5553 5549 5543 5538 5533 5526 5520 5513 5505 5498 5491 5483 5479 5474 5469 5464 5460 5453 5450 5445 5443 5438 5432 5427 5422 5417 5413 5407 5403
Wind_Speed
17 16 14 16 16 17 16 16 18 20 19 21 21 21 20 19 17 17 19 20 21 20 19 19 18 17 17 16 15 15 17 19 18 18 19 20 22 24 27 29 31 32 33 36 37 38 39
17 17 17 16 17 17 16 18 19 20 20 19 20 19 18 18 17 16 18 19 19 19 18 18 19 19 19 19 19 18 18 18 19 20 22 24 27 28 29 30 32 33 35 37 40 41 43
18 18 18 19 21 18 16 19 19 19 18 20 19 20 18 19 19 17 16 18 19 19 19 20 19 18 18 18 18 17 18 19 20 22 23 24 27 28 30 33 35 38 39 41 43 45 49
19 20 20 20 19 19 18 17 19 20 19 21 21 20 17 19 20 18 17 18 18 18 19 19 19 18 19 19 18 20 22 23 22 22 25 26 27 28 31 33 36 39 42 44 46 49 52
23 21 21 20 22 21 22 18 20 21 19 20 21 21 19 18 18 20 18 17 18 19 20 20 21 22 21 22 22 23 22 22 24 26 26 28 30 33 34 36 37 40 43 45 48 51 53
25 24 22 23 24 23 23 23 23 23 22 19 22 22 22 20 18 19 18 17 16 19 21 20 21 23 23 22 22 23 22 24 26 27 29 30 32 33 34 35 38 40 42 45 49 53 55
27 26 24 25 25 24 25 26 25 22 20 20 22 23 22 23 21 19 18 18 17 18 19 21 22 22 23 22 18 21 24 26 28 30 31 32 33 34 35 38 40 42 46 49 52 55 57
30 28 28 27 24 25 26 25 28 27 24 23 22 21 22 23 24 23 21 22 23 23 22 24 25 24 23 18 21 21 25 28 30 30 31 33 34 37 40 42 44 47 49 52 54 58 62
29 28 28 29 27 27 26 26 25 26 30 27 25 23 23 22 24 26 25 25 26 26 25 26 27 26 19 23 23 25 26 27 28 30 32 34 37 39 41 43 46 50 53 57 60 63 67
30 29 29 27 28 27 27 28 29 29 31 29 25 24 24 23 23 22 24 24 26 28 31 31 27 18 25 24 25 26 28 30 32 33 33 38 40 42 45 47 50 54 58 61 64 68 72
34 32 31 31 30 30 29 29 30 31 28 29 26 25 22 22 22 21 22 24 26 31 32 29 27 29 27 28 31 32 34 35 36 37 39 43 46 48 51 53 55 59 62 64 69 73 76
36 38 37 36 35 32 32 32 32 33 31 31 32 27 25 22 20 22 23 24 25 27 29 27 27 29 30 32 34 35 37 39 40 41 43 47 50 52 55 57 60 64 66 68 70 74 73
35 37 37 37 34 35 34 37 35 35 34 34 33 30 28 24 22 25 25 25 27 26 27 28 29 30 30 31 34 37 40 42 43 44 47 50 53 55 57 59 62 65 65 67 70 71 72
37 37 34 37 38 39 43 38 32 34 33 32 34 31 29 28 26 27 26 26 26 27 29 27 28 28 30 32 34 37 40 42 43 46 48 51 54 56 58 61 65 65 66 66 68 69 66
36 39 40 35 32 33 33 32 33 35 35 34 34 30 30 29 29 29 27 26 27 27 27 28 30 32 33 36 38 40 42 43 46 48 50 53 55 58 60 63 64 64 64 65 64 63 62
36 36 34 33 29 25 29 29 33 35 36 36 35 32 30 31 31 31 27 28 29 28 28 29 31 35 37 39 41 42 43 46 48 50 53 55 57 59 61 62 62 61 61 59 58 59 59
37 37 35 36 28 27 31 37 34 34 34 36 36 36 30 31 31 31 28 29 29 30 30 31 34 37 40 42 43 45 46 49 51 53 54 56 58 59 60 60 58 58 56 54 54 53 53
39 39 41 40 40 40 38 35 32 37 36 40 38 37 32 33 32 33 32 32 31 31 33 35 37 40 43 45 47 47 48 50 53 54 55 57 58 58 57 57 55 53 50 48 49 50 49
38 37 38 40 37 35 39 38 38 34 31 36 38 38 35 34 34 33 34 35 34 35 37 38 40 44 46 48 49 49 50 52 54 55 56 57 57 58 58 56 55 51 48 46 45 45 45
37 37 38 38 36 34 41 37 41 45 36 36 38 42 37 35 36 36 36 35 35 37 39 40 42 46 48 50 51 52 53 54 54 55 56 57 57 56 55 54 51 48 45 45 44 44 43
36 37 37 35 39 33 35 40 42 41 41 38 40 40 38 37 36 36 37 38 36 38 41 42 44 48 50 53 54 54 55 55 55 55 55 56 55 55 53 52 49 46 45 45 43 42 40
36 35 36 40 42 36 35 32 37 45 38 41 42 40 39 40 40 39 39 38 39 40 43 45 48 50 52 55 55 55 56 56 55 54 54 55 54 53 51 50 48 44 43 44 42 41 39
40 37 36 40 41 37 41 37 35 37 41 45 48 41 42 42 42 41 41 41 41 43 45 48 49 52 54 56 55 56 57 57 55 54 53 53 53 52 49 47 46 43 41 43 41 40 39
45 43 39 41 39 41 45 50 44 42 43 40 44 42 44 44 43 43 43 42 42 45 48 51 51 54 55 56 56 56 57 56 55 53 52 51 50 49 48 45 45 42 41 41 41 39 40
46 45 42 43 41 42 47 45 47 47 48 44 47 45 43 44 42 42 42 41 44 47 51 52 54 55 56 57 56 57 55 56 53 54 50 49 48 47 46 45 46 41 41 42 41 39 41
44 42 42 43 41 43 44 44 49 45 44 47 47 47 45 45 44 43 43 44 46 50 52 53 55 56 57 56 55 55 56 54 55 54 49 46 45 45 44 46 45 41 41 42 43 40 40
41 41 41 41 42 43 44 46 46 48 50 48 45 44 45 45 43 42 43 46 49 53 54 56 56 57 56 54 56 56 54 53 53 52 49 46 44 44 44 46 45 40 43 44 44 44 42
38 39 39 40 42 42 43 44 44 47 48 44 44 43 43 44 44 45 47 49 52 54 56 56 57 55 55 55 55 54 54 54 53 52 50 46 45 43 43 45 45 43 45 44 45 44 44
36 37 38 39 34 33 36 41 46 48 44 42 44 49 48 49 50 51 51 53 54 55 59 55 56 55 54 54 54 55 55 55 53 53 48 46 45 46 43 43 45 47 47 47 45 47 46
Wind_Direction
308 312 315 317 322 325 334 335 336 331 330 331 321 316 317 317 322 321 318 314 311 310 306 303 300 300 300 297 293 289 287 287 287 288 289 288 284 281 280 279 278 276 274 271 271 268 267
301 303 307 311 313 319 324 329 331 329 322 325 325 322 321 315 314 316 317 314 314 311 308 306 304 303 300 296 294 293 287 284 286 289 290 292 289 288 287 286 285 283 281 281 282 280 278
300 297 300 304 306 307 318 326 331 328 321 321 322 319 319 319 317 320 323 319 313 309 308 309 308 307 302 300 298 295 292 291 292 292 290 291 293 293 293 293 294 293 292 290 289 288 287
295 295 295 297 300 303 304 310 317 323 316 319 320 316 315 318 316 319 323 322 322 313 309 310 308 310 308 304 302 300 299 302 297 292 295 296 297 296 295 295 293 293 293 293 291 289 288
291 290 290 292 299 301 302 305 304 313 304 309 314 312 307 312 313 316 318 321 324 317 312 311 312 311 311 307 303 302 300 295 293 295 296 296 296 297 296 295 295 295 295 294 292 290 289
283 284 286 287 292 298 299 303 304 305 302 298 305 310 304 302 304 309 314 317 321 319 316 314 310 304 303 303 303 301 298 299 299 298 297 298 298 297 297 299 301 300 299 299 297 294 291
279 279 281 286 292 293 302 293 302 298 299 287 292 300 298 297 298 295 306 310 312 319 322 316 313 307 309 310 304 302 301 301 299 299 302 301 299 299 299 300 301 302 303 302 300 297 296
279 274 275 278 285 288 299 297 296 294 294 293 285 287 290 293 293 290 292 305 304 311 319 320 316 311 307 299 303 301 300 302 302 300 301 300 300 303 304 303 303 304 305 304 303 300 300
277 270 274 274 281 286 290 293 295 298 301 295 288 282 288 290 289 285 288 298 300 304 312 318 313 309 298 303 300 301 299 298 297 297 299 302 304 306 306 307 307 308 309 308 305 303 302
272 272 268 271 277 281 289 290 294 294 297 299 294 287 291 292 291 283 281 291 297 301 308 312 315 308 302 299 298 297 297 300 300 302 304 305 309 309 310 311 312 311 311 309 307 307 306
263 267 270 270 273 280 286 287 288 288 293 301 298 291 288 290 288 280 283 287 293 302 307 311 311 310 308 306 306 304 302 304 306 308 311 312 315 315 314 314 314 313 312 311 311 311 311
259 263 269 272 273 276 284 287 285 281 288 291 296 292 285 283 277 278 283 288 294 299 306 308 312 311 308 306 307 307 307 308 309 312 314 315 316 315 315 314 314 316 315 313 312 311 310
262 262 268 269 269 272 282 284 284 280 280 285 289 291 281 275 271 276 280 287 292 295 298 305 310 311 311 309 309 310 311 311 312 315 316 316 316 316 315 314 315 314 313 311 311 312 313
265 265 273 272 266 275 277 279 280 280 281 283 286 286 280 275 273 276 277 283 288 293 297 299 309 316 319 317 316 315 313 310 309 312 314 315 314 314 314 314 313 313 313 315 314 314 314
263 266 267 276 270 276 279 273 273 275 279 283 288 284 278 274 276 276 276 280 285 289 292 296 304 308 315 316 315 315 315 311 310 312 314 313 313 313 313 313 314 316 317 316 316 315 315
264 266 261 262 268 270 288 273 278 272 275 278 279 283 275 272 275 272 272 279 283 286 288 294 302 308 314 315 314 315 316 313 311 312 314 313 311 312 312 313 315 315 316 318 319 317 317
262 262 258 258 254 275 281 286 275 280 280 274 273 278 274 271 272 269 269 276 279 283 288 294 299 306 310 313 315 316 315 313 312 311 311 312 312 312 312 314 315 316 316 318 318 318 317
259 260 261 258 259 275 281 277 283 283 282 277 271 274 271 268 271 270 269 273 278 281 286 293 297 303 309 314 314 314 313 312 311 309 309 311 311 310 311 312 313 314 315 316 317 318 318
259 259 262 265 265 264 270 274 278 284 284 280 271 274 273 267 268 273 273 273 278 281 285 292 298 302 308 312 312 312 312 310 307 307 309 310 309 308 310 310 312 313 314 313 314 316 318
261 260 260 261 262 264 268 273 277 289 283 284 275 274 274 270 269 274 272 273 278 282 285 292 297 302 306 310 311 310 309 308 306 305 307 307 306 307 309 310 311 312 310 311 312 314 318
261 260 259 255 260 258 264 268 271 277 278 290 279 271 273 274 272 272 274 276 280 285 286 292 297 301 306 308 309 307 307 306 305 305 304 304 305 306 308 308 310 310 309 309 311 313 318
263 263 260 258 259 253 264 273 270 276 282 291 275 274 275 275 275 278 278 278 282 286 290 295 296 300 304 306 305 305 306 305 304 303 303 303 304 305 306 307 308 310 307 308 310 313 317
261 263 263 262 258 252 262 265 274 275 280 283 285 276 274 276 276 280 281 280 283 287 292 295 296 300 303 302 303 304 304 303 303 302 302 303 303 304 305 305 306 306 304 307 309 311 315
261 261 262 263 260 252 257 266 270 274 277 275 283 271 274 277 279 283 283 282 284 289 292 295 296 300 300 301 301 302 301 301 301 302 301 302 301 301 303 303 303 305 305 305 308 311 313
263 263 261 261 263 260 256 260 268 265 275 278 279 269 272 278 282 285 285 284 288 290 293 296 298 298 298 299 299 300 299 299 301 299 301 301 299 299 299 300 302 306 303 306 308 313 312
265 263 260 260 261 265 260 256 262 264 283 277 275 266 270 276 283 286 286 288 290 294 295 298 297 297 297 297 298 297 297 299 299 300 301 298 296 296 298 297 300 305 304 305 307 311 312
264 264 261 261 261 262 259 263 257 268 275 274 268 266 271 279 281 286 290 292 295 293 296 297 297 296 298 296 296 296 295 296 297 298 299 296 296 295 293 294 298 303 301 304 307 311 312
265 263 260 261 262 260 264 261 259 273 269 266 269 271 273 275 282 289 292 295 295 295 297 297 295 297 295 295 295 295 293 295 295 296 296 295 292 293 289 292 297 298 299 301 304 306 309
268 262 258 258 259 267 268 262 267 267 267 268 276 275 275 277 283 286 290 293 295 295 296 294 296 297 295 293 292 293 294 294 294 294 292 290 290 288 287 290 291 294 295 298 301 301 306